• In Lithuania
  • List of Countries
  • For 7 days
  • Water Temperature
  • Satellite Maps
  • Weather Map
  • Weather Widgets
  • user-avatar
    Login

    Hourly Weather Hanoi

    Today, 22 September, Saturday

    Time Temperature Precipitation Wind Pressure Humidity
    00:00 +27°C° 0 mm 1 mps 759 mmHg 85%
    01:00 +25°C° 0 mm 0 mps 759 mmHg 86%
    02:00 +24°C° 0 mm 0 mps 759 mmHg 87%
    03:00 +24°C° 0 mm 0 mps 759 mmHg 88%
    04:00 +24°C° 0 mm 0 mps 759 mmHg 88%
    05:00 +25°C° 0 mm 0 mps 759 mmHg 87%
    06:00 +25°C° 0 mm 0 mps 759 mmHg 85%
    07:00 +26°C° 0 mm 0 mps 760 mmHg 82%
    08:00 +28°C° 0 mm 0 mps 760 mmHg 75%
    09:00 +31°C° 0 mm 1 mps 760 mmHg 68%
    10:00 +33°C° 0 mm 1 mps 760 mmHg 61%
    11:00 +34°C° 0 mm 1 mps 759 mmHg 57%
    12:00 +35°C° 0 mm 1 mps 758 mmHg 53%
    13:00 +35°C° 0 mm 1 mps 758 mmHg 51%
    14:00 +35°C° 0 mm 1 mps 758 mmHg 51%
    15:00 +35°C° 0 mm 1 mps 758 mmHg 51%
    16:00 +35°C° 0 mm 1 mps 757 mmHg 51%
    17:00 +33°C° 0 mm 1 mps 757 mmHg 57%
    18:00 +31°C° 0 mm 1 mps 758 mmHg 62%
    19:00 +30°C° 0 mm 1 mps 758 mmHg 67%
    20:00 +29°C° 0 mm 1 mps 758 mmHg 70%
    21:00 +28°C° 0 mm 1 mps 759 mmHg 73%
    22:00 +28°C° 0 mm 1 mps 759 mmHg 75%
    23:00 +28°C° 0 mm 1 mps 760 mmHg 77%

    Tomorrow, 23 September, Sunday

    Time Temperature Precipitation Wind Pressure Humidity
    00:00 +27°C° 0 mm 1 mps 760 mmHg 79%
    01:00 +25°C° 0 mm 0 mps 760 mmHg 80%
    02:00 +25°C° 0 mm 0 mps 760 mmHg 81%
    03:00 +25°C° 0 mm 0 mps 759 mmHg 82%
    04:00 +24°C° 0 mm 0 mps 759 mmHg 83%
    05:00 +25°C° 0 mm 0 mps 759 mmHg 82%
    06:00 +27°C° 0 mm 1 mps 759 mmHg 81%
    07:00 +28°C° 0 mm 1 mps 760 mmHg 80%
    08:00 +29°C° 0 mm 1 mps 760 mmHg 74%
    09:00 +31°C° 0 mm 1 mps 760 mmHg 67%
    10:00 +32°C° 0 mm 1 mps 760 mmHg 61%
    11:00 +33°C° 0 mm 1 mps 759 mmHg 58%
    12:00 +34°C° 0 mm 1 mps 758 mmHg 55%
    13:00 +35°C° 0 mm 1 mps 758 mmHg 52%
    14:00 +35°C° 0 mm 1 mps 757 mmHg 52%
    15:00 +35°C° 0 mm 1 mps 757 mmHg 52%
    16:00 +35°C° 0 mm 1 mps 756 mmHg 52%
    17:00 +33°C° 0 mm 1 mps 756 mmHg 58%
    18:00 +32°C° 0 mm 1 mps 756 mmHg 63%
    19:00 +30°C° 0 mm 2 mps 756 mmHg 68%
    20:00 +30°C° 0 mm 2 mps 757 mmHg 72%
    21:00 +29°C° 0 mm 2 mps 757 mmHg 75%
    22:00 +28°C° 0 mm 2 mps 758 mmHg 79%
    23:00 +28°C° 0 mm 1 mps 758 mmHg 81%

    Day after tomorrow, 24 September, Monday

    Time Temperature Precipitation Wind Pressure Humidity
    00:00 +27°C° 0 mm 1 mps 758 mmHg 83%
    01:00 +27°C° 0 mm 1 mps 758 mmHg 85%
    02:00 +27°C° 0 mm 1 mps 757 mmHg 86%
    03:00 +25°C° 0 mm 0 mps 757 mmHg 87%
    04:00 +24°C° 0 mm 0 mps 757 mmHg 88%
    05:00 +25°C° 0 mm 0 mps 757 mmHg 86%
    06:00 +25°C° 0 mm 0 mps 757 mmHg 85%
    07:00 +26°C° 0 mm 0 mps 757 mmHg 83%
    08:00 +28°C° 0 mm 0 mps 757 mmHg 76%
    09:00 +30°C° 0 mm 0 mps 758 mmHg 68%
    10:00 +31°C° 0 mm 0 mps 758 mmHg 60%
    11:00 +34°C° 0 mm 1 mps 757 mmHg 56%
    12:00 +35°C° 0 mm 1 mps 756 mmHg 52%
    13:00 +36°C° 0 mm 1 mps 755 mmHg 49%
    14:00 +37°C° 0 mm 2 mps 754 mmHg 49%
    15:00 +36°C° 0 mm 2 mps 754 mmHg 50%
    16:00 +36°C° 0 mm 2 mps 753 mmHg 51%
    17:00 +35°C° 0 mm 2 mps 753 mmHg 58%
    18:00 +33°C° 0 mm 3 mps 754 mmHg 66%
    19:00 +30°C° 0 mm 3 mps 754 mmHg 73%
    20:00 +29°C° 0 mm 3 mps 755 mmHg 78%
    21:00 +29°C° 0 mm 2 mps 755 mmHg 82%
    22:00 +28°C° 0 mm 2 mps 756 mmHg 86%
    23:00 +28°C° 0 mm 2 mps 756 mmHg 87%

    25 September, Tuesday

    Time Temperature Precipitation Wind Pressure Humidity
    00:00 +28°C° 0 mm 1 mps 756 mmHg 88%
    01:00 +27°C° 0 mm 1 mps 755 mmHg 90%
    02:00 +27°C° 0 mm 1 mps 755 mmHg 90%
    03:00 +27°C° 0 mm 1 mps 755 mmHg 91%
    04:00 +27°C° 0 mm 1 mps 754 mmHg 92%
    05:00 +27°C° 0 mm 1 mps 755 mmHg 91%
    06:00 +28°C° 0 mm 1 mps 755 mmHg 89%
    07:00 +28°C° 0 mm 1 mps 755 mmHg 88%
    08:00 +29°C° 0.1 mm 1 mps 756 mmHg 82%
    09:00 +31°C° 0.1 mm 1 mps 756 mmHg 77%
    10:00 +32°C° 0.1 mm 2 mps 756 mmHg 71%
    11:00 +34°C° 0.5 mm 2 mps 755 mmHg 69%
    12:00 +34°C° 0.5 mm 2 mps 754 mmHg 66%
    13:00 +35°C° 0.5 mm 2 mps 753 mmHg 64%
    14:00 +35°C° 0.2 mm 3 mps 753 mmHg 65%
    15:00 +35°C° 0.2 mm 3 mps 752 mmHg 66%
    16:00 +35°C° 0.2 mm 3 mps 751 mmHg 67%
    17:00 +33°C° 0.5 mm 3 mps 752 mmHg 73%
    18:00 +31°C° 0.5 mm 3 mps 752 mmHg 79%
    19:00 +30°C° 0.5 mm 3 mps 753 mmHg 84%
    20:00 +29°C° 0.7 mm 3 mps 753 mmHg 86%
    21:00 +29°C° 0.7 mm 2 mps 754 mmHg 88%
    22:00 +29°C° 0.7 mm 2 mps 755 mmHg 89%
    23:00 +28°C° 2.2 mm 2 mps 755 mmHg 90%

    26 September, Wednesday

    Time Temperature Precipitation Wind Pressure Humidity
    00:00 +28°C° 2.2 mm 2 mps 754 mmHg 92%
    01:00 +28°C° 2.2 mm 2 mps 754 mmHg 93%
    02:00 +28°C° 1.1 mm 2 mps 754 mmHg 93%
    03:00 +27°C° 1.1 mm 2 mps 754 mmHg 93%
    04:00 +27°C° 1.1 mm 2 mps 754 mmHg 94%
    05:00 +28°C° 2.1 mm 2 mps 754 mmHg 92%
    06:00 +28°C° 2.1 mm 2 mps 754 mmHg 91%
    07:00 +28°C° 2.1 mm 3 mps 755 mmHg 90%
    08:00 +30°C° 1.8 mm 3 mps 755 mmHg 84%
    09:00 +31°C° 1.8 mm 3 mps 755 mmHg 79%
    10:00 +34°C° 1.8 mm 3 mps 756 mmHg 74%
    11:00 +34°C° 1.4 mm 3 mps 755 mmHg 72%
    12:00 +34°C° 1.4 mm 3 mps 754 mmHg 71%
    13:00 +35°C° 1.4 mm 3 mps 753 mmHg 70%
    14:00 +34°C° 0.7 mm 4 mps 753 mmHg 72%
    15:00 +34°C° 0.7 mm 4 mps 752 mmHg 74%
    16:00 +34°C° 0.7 mm 4 mps 752 mmHg 75%
    17:00 +33°C° 0.1 mm 3 mps 752 mmHg 80%
    18:00 +31°C° 0.1 mm 3 mps 753 mmHg 84%
    19:00 +29°C° 0.1 mm 3 mps 753 mmHg 89%
    20:00 +29°C° 0.3 mm 3 mps 754 mmHg 90%
    21:00 +29°C° 0.3 mm 2 mps 755 mmHg 92%
    22:00 +29°C° 0.3 mm 2 mps 755 mmHg 93%
    23:00 +28°C° 1.6 mm 2 mps 755 mmHg 93%

    27 September, Thursday

    Time Temperature Precipitation Wind Pressure Humidity
    00:00 +28°C° 1.6 mm 2 mps 755 mmHg 94%
    01:00 +28°C° 1.6 mm 2 mps 755 mmHg 94%
    02:00 +28°C° 0.9 mm 2 mps 754 mmHg 94%
    03:00 +28°C° 0.9 mm 2 mps 754 mmHg 94%
    04:00 +28°C° 0.9 mm 2 mps 754 mmHg 94%
    05:00 +28°C° 0.9 mm 2 mps 755 mmHg 93%
    06:00 +28°C° 0.9 mm 2 mps 755 mmHg 91%
    07:00 +29°C° 0.9 mm 2 mps 756 mmHg 90%
    08:00 +30°C° 3.6 mm 2 mps 756 mmHg 85%
    09:00 +31°C° 3.6 mm 2 mps 756 mmHg 80%
    10:00 +32°C° 3.6 mm 2 mps 756 mmHg 75%
    11:00 +33°C° 3.4 mm 3 mps 755 mmHg 75%
    12:00 +33°C° 3.4 mm 3 mps 754 mmHg 75%
    13:00 +33°C° 3.4 mm 3 mps 753 mmHg 75%
    14:00 +33°C° 1 mm 3 mps 753 mmHg 76%
    15:00 +33°C° 1 mm 3 mps 753 mmHg 76%
    16:00 +32°C° 1 mm 2 mps 753 mmHg 77%
    17:00 +31°C° 0.1 mm 2 mps 753 mmHg 81%
    18:00 +30°C° 0.1 mm 2 mps 754 mmHg 84%
    19:00 +29°C° 0.1 mm 2 mps 754 mmHg 88%
    20:00 +29°C° 0.6 mm 2 mps 755 mmHg 90%
    21:00 +29°C° 0.6 mm 2 mps 755 mmHg 91%
    22:00 +28°C° 0.6 mm 2 mps 756 mmHg 93%
    23:00 +28°C° 1.5 mm 2 mps 755 mmHg 93%
    Show more